When you browse on this site, cookies collect data to enhance your experience and personalize the content and advertising you see.
Visit our Privacy Policy to learn more. By continuing to use the site, you agree to this use of cookies and data.
  • In Österreich
  • Länderverzeichnis
  • Für 7 Tage
  • Wassertemperatur
  • Wetterkarte
  • News
  • Widgets
  • user-avatar
    Anmelden

    Stündliche Wetter Calnalí

    Heute, 18 August, Sonntag

    Zeit Temperatur Niederschläge Wind Luftdruck Luftfeuchtigkeit
    00:00 +20°C° 0 mm 1 m/S 654 mmHg 93%
    01:00 +19°C° 0 mm 1 m/S 654 mmHg 92%
    02:00 +19°C° 0 mm 1 m/S 654 mmHg 91%
    03:00 +19°C° 0 mm 1 m/S 654 mmHg 91%
    04:00 +19°C° 0 mm 1 m/S 654 mmHg 91%
    05:00 +19°C° 0 mm 1 m/S 654 mmHg 91%
    06:00 +21°C° 0 mm 1 m/S 655 mmHg 86%
    07:00 +22°C° 0 mm 1 m/S 655 mmHg 82%
    08:00 +22°C° 0 mm 0 m/S 656 mmHg 78%
    09:00 +25°C° 0 mm 1 m/S 656 mmHg 72%
    10:00 +27°C° 0 mm 1 m/S 656 mmHg 66%
    11:00 +28°C° 0 mm 2 m/S 656 mmHg 61%
    12:00 +28°C° 0 mm 2 m/S 656 mmHg 61%
    13:00 +28°C° 0 mm 2 m/S 655 mmHg 61%
    14:00 +28°C° 0 mm 2 m/S 654 mmHg 62%
    15:00 +27°C° 0.1 mm 2 m/S 654 mmHg 67%
    16:00 +26°C° 0.1 mm 2 m/S 654 mmHg 72%
    17:00 +25°C° 0.1 mm 2 m/S 654 mmHg 77%
    18:00 +24°C° 0.1 mm 1 m/S 654 mmHg 82%
    19:00 +22°C° 0.1 mm 1 m/S 654 mmHg 88%
    20:00 +21°C° 0.1 mm 1 m/S 655 mmHg 94%
    21:00 +21°C° 0 mm 1 m/S 655 mmHg 95%
    22:00 +20°C° 0 mm 1 m/S 655 mmHg 95%
    23:00 +20°C° 0 mm 1 m/S 655 mmHg 96%

    Morgen, 19 August, Montag

    Zeit Temperatur Niederschläge Wind Luftdruck Luftfeuchtigkeit
    00:00 +20°C° 0.6 mm 1 m/S 655 mmHg 95%
    01:00 +20°C° 0.6 mm 1 m/S 654 mmHg 95%
    02:00 +19°C° 0.6 mm 1 m/S 654 mmHg 95%
    03:00 +19°C° 0.4 mm 1 m/S 654 mmHg 94%
    04:00 +17°C° 0.4 mm 0 m/S 654 mmHg 94%
    05:00 +17°C° 0.4 mm 0 m/S 654 mmHg 93%
    06:00 +18°C° 0.2 mm 0 m/S 655 mmHg 90%
    07:00 +22°C° 0.2 mm 1 m/S 656 mmHg 87%
    08:00 +23°C° 0.2 mm 1 m/S 656 mmHg 84%
    09:00 +23°C° 0.4 mm 1 m/S 656 mmHg 81%
    10:00 +24°C° 0.4 mm 1 m/S 656 mmHg 79%
    11:00 +25°C° 0.4 mm 2 m/S 656 mmHg 76%
    12:00 +25°C° 1.1 mm 2 m/S 656 mmHg 76%
    13:00 +25°C° 1.1 mm 1 m/S 655 mmHg 76%
    14:00 +25°C° 1.1 mm 1 m/S 655 mmHg 76%
    15:00 +24°C° 1.3 mm 1 m/S 655 mmHg 80%
    16:00 +23°C° 1.3 mm 1 m/S 655 mmHg 84%
    17:00 +22°C° 1.3 mm 1 m/S 655 mmHg 88%
    18:00 +21°C° 0.5 mm 1 m/S 655 mmHg 90%
    19:00 +20°C° 0.5 mm 1 m/S 655 mmHg 92%
    20:00 +19°C° 0.5 mm 1 m/S 655 mmHg 94%
    21:00 +19°C° 0 mm 1 m/S 656 mmHg 94%
    22:00 +19°C° 0 mm 1 m/S 656 mmHg 94%
    23:00 +18°C° 0 mm 1 m/S 656 mmHg 94%

    übermorgen, 20 August, Dienstag

    Zeit Temperatur Niederschläge Wind Luftdruck Luftfeuchtigkeit
    00:00 +18°C° 0 mm 1 m/S 656 mmHg 94%
    01:00 +18°C° 0 mm 1 m/S 655 mmHg 94%
    02:00 +16°C° 0 mm 1 m/S 655 mmHg 94%
    03:00 +16°C° 0 mm 1 m/S 655 mmHg 94%
    04:00 +16°C° 0 mm 1 m/S 655 mmHg 94%
    05:00 +16°C° 0 mm 1 m/S 655 mmHg 94%
    06:00 +18°C° 0 mm 1 m/S 656 mmHg 90%
    07:00 +20°C° 0 mm 1 m/S 657 mmHg 86%
    08:00 +21°C° 0 mm 1 m/S 657 mmHg 82%
    09:00 +23°C° 0 mm 1 m/S 657 mmHg 75%
    10:00 +24°C° 0 mm 2 m/S 657 mmHg 69%
    11:00 +25°C° 0 mm 2 m/S 658 mmHg 62%
    12:00 +25°C° 0.1 mm 2 m/S 657 mmHg 62%
    13:00 +25°C° 0.1 mm 2 m/S 657 mmHg 62%
    14:00 +25°C° 0.1 mm 2 m/S 656 mmHg 62%
    15:00 +24°C° 0.7 mm 2 m/S 656 mmHg 69%
    16:00 +23°C° 0.7 mm 1 m/S 656 mmHg 76%
    17:00 +20°C° 0.7 mm 0 m/S 656 mmHg 84%
    18:00 +21°C° 1.2 mm 1 m/S 656 mmHg 87%
    19:00 +20°C° 1.2 mm 1 m/S 656 mmHg 90%
    20:00 +19°C° 1.2 mm 1 m/S 656 mmHg 93%
    21:00 +18°C° 0.3 mm 1 m/S 656 mmHg 93%
    22:00 +18°C° 0.3 mm 1 m/S 656 mmHg 93%
    23:00 +18°C° 0.3 mm 1 m/S 656 mmHg 93%

    21 August, Mittwoch

    Zeit Temperatur Niederschläge Wind Luftdruck Luftfeuchtigkeit
    00:00 +18°C° 0 mm 1 m/S 656 mmHg 93%
    01:00 +16°C° 0 mm 1 m/S 656 mmHg 93%
    02:00 +16°C° 0 mm 1 m/S 655 mmHg 92%
    03:00 +16°C° 0 mm 1 m/S 655 mmHg 93%
    04:00 +16°C° 0 mm 1 m/S 655 mmHg 93%
    05:00 +16°C° 0 mm 1 m/S 655 mmHg 93%
    06:00 +18°C° 0 mm 1 m/S 656 mmHg 88%
    07:00 +20°C° 0 mm 1 m/S 657 mmHg 83%
    08:00 +20°C° 0 mm 0 m/S 658 mmHg 77%
    09:00 +23°C° 0.4 mm 1 m/S 657 mmHg 74%
    10:00 +24°C° 0.4 mm 2 m/S 657 mmHg 72%
    11:00 +25°C° 0.4 mm 2 m/S 657 mmHg 69%
    12:00 +25°C° 0.7 mm 2 m/S 657 mmHg 69%
    13:00 +25°C° 0.7 mm 2 m/S 656 mmHg 70%
    14:00 +25°C° 0.7 mm 1 m/S 655 mmHg 71%
    15:00 +24°C° 1.1 mm 1 m/S 655 mmHg 76%
    16:00 +23°C° 1.1 mm 1 m/S 655 mmHg 81%
    17:00 +22°C° 1.1 mm 1 m/S 655 mmHg 86%
    18:00 +21°C° 0.8 mm 1 m/S 655 mmHg 88%
    19:00 +20°C° 0.8 mm 1 m/S 655 mmHg 89%
    20:00 +19°C° 0.8 mm 1 m/S 656 mmHg 91%
    21:00 +18°C° 0.1 mm 1 m/S 656 mmHg 91%
    22:00 +18°C° 0.1 mm 1 m/S 656 mmHg 91%
    23:00 +17°C° 0.1 mm 2 m/S 656 mmHg 90%

    22 August, Donnerstag

    Zeit Temperatur Niederschläge Wind Luftdruck Luftfeuchtigkeit
    00:00 +17°C° 0 mm 2 m/S 655 mmHg 90%
    01:00 +17°C° 0 mm 2 m/S 655 mmHg 89%
    02:00 +16°C° 0 mm 1 m/S 654 mmHg 89%
    03:00 +16°C° 0 mm 1 m/S 654 mmHg 88%
    04:00 +16°C° 0 mm 1 m/S 654 mmHg 88%
    05:00 +16°C° 0 mm 1 m/S 655 mmHg 88%
    06:00 +19°C° 0 mm 1 m/S 655 mmHg 80%
    07:00 +22°C° 0 mm 1 m/S 656 mmHg 73%
    08:00 +22°C° 0 mm 0 m/S 657 mmHg 65%
    09:00 +25°C° 0 mm 1 m/S 657 mmHg 63%
    10:00 +26°C° 0 mm 2 m/S 657 mmHg 61%
    11:00 +27°C° 0 mm 2 m/S 657 mmHg 59%
    12:00 +26°C° 0.4 mm 2 m/S 656 mmHg 63%
    13:00 +26°C° 0.4 mm 2 m/S 655 mmHg 67%
    14:00 +25°C° 0.4 mm 2 m/S 655 mmHg 71%
    15:00 +25°C° 0.4 mm 1 m/S 655 mmHg 74%
    16:00 +24°C° 0.4 mm 1 m/S 655 mmHg 77%
    17:00 +24°C° 0.4 mm 1 m/S 654 mmHg 80%
    18:00 +23°C° 0.1 mm 1 m/S 655 mmHg 83%
    19:00 +21°C° 0.1 mm 1 m/S 655 mmHg 86%
    20:00 +20°C° 0.1 mm 1 m/S 655 mmHg 89%
    21:00 +20°C° 0.2 mm 1 m/S 655 mmHg 89%
    22:00 +20°C° 0.2 mm 1 m/S 655 mmHg 89%
    23:00 +19°C° 0.2 mm 1 m/S 655 mmHg 89%

    23 August, Freitag

    Zeit Temperatur Niederschläge Wind Luftdruck Luftfeuchtigkeit
    00:00 +19°C° 0.2 mm 1 m/S 655 mmHg 88%
    01:00 +19°C° 0.2 mm 1 m/S 655 mmHg 88%
    02:00 +19°C° 0.2 mm 1 m/S 655 mmHg 87%
    03:00 +19°C° 0.1 mm 1 m/S 655 mmHg 86%
    04:00 +19°C° 0.1 mm 1 m/S 655 mmHg 84%
    05:00 +19°C° 0.1 mm 1 m/S 655 mmHg 83%
    06:00 +21°C° 0 mm 1 m/S 656 mmHg 79%
    07:00 +22°C° 0 mm 1 m/S 656 mmHg 75%
    08:00 +21°C° 0 mm 0 m/S 657 mmHg 71%
    09:00 +25°C° 0 mm 1 m/S 657 mmHg 67%
    10:00 +26°C° 0 mm 1 m/S 657 mmHg 63%
    11:00 +27°C° 0 mm 1 m/S 657 mmHg 60%
    12:00 +27°C° 0.1 mm 1 m/S 656 mmHg 60%
    13:00 +27°C° 0.1 mm 2 m/S 656 mmHg 61%
    14:00 +27°C° 0.1 mm 2 m/S 655 mmHg 61%
    15:00 +26°C° 0.4 mm 2 m/S 655 mmHg 66%
    16:00 +25°C° 0.4 mm 1 m/S 655 mmHg 71%
    17:00 +24°C° 0.4 mm 1 m/S 654 mmHg 76%
    18:00 +24°C° 0 mm 1 m/S 655 mmHg 75%
    19:00 +23°C° 0 mm 2 m/S 655 mmHg 74%
    20:00 +21°C° 0 mm 2 m/S 655 mmHg 73%
    21:00 +21°C° 0 mm 2 m/S 656 mmHg 74%
    22:00 +20°C° 0 mm 2 m/S 656 mmHg 74%
    23:00 +20°C° 0 mm 2 m/S 656 mmHg 74%
    Mehr zeigen